Home   Weather   Santa Clara   Past weeks

Flag for Cuba Past Weather in Santa Clara, Cuba — Yesterday and Last 2 Weeks

Now
81 °F

Partly sunny.


Feels Like: 82 °F
Forecast: 58 / 82 °F
Wind: 14 mph from Southwest

Location: Cienfuegos - Las Villas

Current Time: Feb 21, 2017 at 2:21:49 pm

Latest Report: Feb 21, 2017 at 1:50 pm


Visibility: 6 mi

Pressure: 29.98 "Hg

Humidity: 58%

Dew Point: 64 °F

Location of Santa ClaraLocation

Past Weather in Santa Clara — Graph

°F

Santa Clara Temperature Yesterday

Maximum temperature yesterday: 91 °F (at 1:51 pm)
Minimum temperature yesterday: 66 °F (at 2:58 am)
Average temperature yesterday: 76 °F

High & Low Weather Summary for the Past Weeks

 TemperatureHumidityPressure
High91 °F (Feb 20, 1:51 pm)100% (Feb 8, 4:58 am)30.24 "Hg (Feb 8, 4:58 am)
Low59 °F (Feb 15, 4:58 am)33% (Feb 11, 1:50 pm)29.95 "Hg (Feb 7, 2:51 pm)
Average76 °F72%30.06 "Hg
* Reported Feb 6 12:53 pm — Feb 21 12:58 pm, Santa Clara, Weather by CustomWeather, © 2017

Note: Actual official high and low records may vary slightly from our data, if they occured in-between our weather recording intervals... More about our weather records

Advertising

Santa Clara Weather History for the Previous 24 Hours

Scroll right to see more
 ConditionsComfort  
Time TempWeatherWind HumidityBarometerVisibility
12:58 pm
Tue, Feb 21
86 °FBroken clouds.No wind40%30.01 "Hg6 mi
11:51 am82 °FScattered clouds.8 mph45%30.04 "Hg6 mi
10:51 am82 °FPartly sunny.12 mph45%30.07 "Hg6 mi
9:52 am77 °FPartly sunny.10 mph57%30.07 "Hg6 mi
8:50 am75 °FPartly sunny.8 mph65%30.07 "Hg6 mi
7:58 am68 °FMild.6 mph83%30.04 "HgN/A
6:58 am64 °FMild.5 mph88%30.04 "HgN/A
5:57 am64 °FMild.6 mph88%30.01 "HgN/A
4:58 am66 °FMild.7 mph83%30.01 "HgN/A
3:58 am66 °FMild.8 mph83%30.01 "HgN/A
2:58 am66 °FMild.7 mph83%30.01 "HgN/A
1:58 am66 °FMild.7 mph83%30.01 "HgN/A
12:58 am68 °FMild.6 mph78%30.04 "HgN/A
11:58 pm
Mon, Feb 20
68 °FMild.8 mph78%30.07 "HgN/A
10:58 pm70 °FMild.8 mph73%30.07 "HgN/A
9:58 pm72 °FMild.10 mph69%30.07 "HgN/A
8:58 pm73 °FMild.9 mph65%30.07 "HgN/A
7:58 pm75 °FMild.12 mph61%30.07 "HgN/A
6:58 pm79 °FWarm.10 mph54%30.04 "HgN/A
5:58 pm82 °FWarm.9 mph48%30.04 "HgN/A
3:50 pm88 °FScattered clouds.5 mph52%30.01 "HgN/A
2:52 pm91 °FScattered clouds.7 mph36%29.98 "HgN/A
Weather by CustomWeather, © 2017

See weather overviewHow to use our weather pages